Tracking 18852 objects as of 24-Nov-2017
HD Live streaming from Space Station
objects crossing your sky now

AGGIESAT 4

Track AGGIESAT 4 now!
10-day predictions
AGGIESAT 4 is classified as:


NORAD ID: 41313
Int'l Code: 1998-067HP
Perigee: 312.6 km
Apogee: 318.8 km
Inclination: 51.6 °
Period: 90.7 minutes
Semi major axis: 6686 km
RCS: Unknown
Launch date: November 20, 1998
Source: United States (US)
Launch site: TYURATAM MISSILE AND SPACE COMPLEX (TTMTR)
aabbcc
Your satellite tracking list
Your tracking list is empty




NASA's NSSDC Master Catalog

Two Line Element Set (TLE):
1 41313U 98067HP  17327.31155409  .00090922  00000-0  32999-3 0  9997
2 41313  51.6359 259.4670 0004632  86.7422 273.4113 15.87763801104079
Source of the keplerian elements: Caltech